Year,Month,Day,Hour,Minute,Value (Times are PST for temperature in C)
2017,05,27,00,00,13.70
2017,05,27,00,01,13.70
2017,05,27,00,02,13.70
2017,05,27,00,03,13.70
2017,05,27,00,04,13.70
2017,05,27,00,05,13.60
2017,05,27,00,06,13.60
2017,05,27,00,07,13.60
2017,05,27,00,08,13.60
2017,05,27,00,09,13.60
2017,05,27,00,10,13.60
2017,05,27,00,11,13.50
2017,05,27,00,12,13.50
2017,05,27,00,13,13.50
2017,05,27,00,14,13.50
2017,05,27,00,15,13.40
2017,05,27,00,16,13.40
2017,05,27,00,17,13.40
2017,05,27,00,18,13.40
2017,05,27,00,19,13.40
2017,05,27,00,20,13.40
2017,05,27,00,21,13.40
2017,05,27,00,22,13.40
2017,05,27,00,23,13.40
2017,05,27,00,24,13.40
2017,05,27,00,25,13.40
2017,05,27,00,26,13.40
2017,05,27,00,27,13.40
2017,05,27,00,28,13.50
2017,05,27,00,29,13.50
2017,05,27,00,30,13.50
2017,05,27,00,31,13.50
2017,05,27,00,32,13.50
2017,05,27,00,33,13.50
2017,05,27,00,34,13.50
2017,05,27,00,35,13.50
2017,05,27,00,36,13.50
2017,05,27,00,37,13.50
2017,05,27,00,38,13.50
2017,05,27,00,39,13.50
2017,05,27,00,40,13.50
2017,05,27,00,41,13.50
2017,05,27,00,42,13.50
2017,05,27,00,43,13.50
2017,05,27,00,44,13.50
2017,05,27,00,45,13.50
2017,05,27,00,46,13.40
2017,05,27,00,47,13.40
2017,05,27,00,48,13.40
2017,05,27,00,49,13.40
2017,05,27,00,50,13.40
2017,05,27,00,51,13.40
2017,05,27,00,52,13.40
2017,05,27,00,53,13.40
2017,05,27,00,54,13.30
2017,05,27,00,55,13.30
2017,05,27,00,56,13.30
2017,05,27,00,57,13.30
2017,05,27,00,58,13.30
2017,05,27,00,59,13.30
2017,05,27,01,00,13.30
2017,05,27,01,01,13.30
2017,05,27,01,02,13.30
2017,05,27,01,03,13.40
2017,05,27,01,04,13.40
2017,05,27,01,05,13.40
2017,05,27,01,06,13.40
2017,05,27,01,07,13.40
2017,05,27,01,08,13.30
2017,05,27,01,09,13.30
2017,05,27,01,10,13.30
2017,05,27,01,11,13.30
2017,05,27,01,12,13.30
2017,05,27,01,13,13.30
2017,05,27,01,14,13.30
2017,05,27,01,15,13.30
2017,05,27,01,16,13.30
2017,05,27,01,17,13.30
2017,05,27,01,18,13.30
2017,05,27,01,19,13.30
2017,05,27,01,20,13.30
2017,05,27,01,21,13.20
2017,05,27,01,22,13.20
2017,05,27,01,23,13.20
2017,05,27,01,24,13.20
2017,05,27,01,25,13.20
2017,05,27,01,26,13.20
2017,05,27,01,27,13.20
2017,05,27,01,28,13.20
2017,05,27,01,29,13.20
2017,05,27,01,30,13.10
2017,05,27,01,31,13.10
2017,05,27,01,32,13.10
2017,05,27,01,33,13.10
2017,05,27,01,34,13.10
2017,05,27,01,35,13.10
2017,05,27,01,36,13.10
2017,05,27,01,37,13.00
2017,05,27,01,38,13.00
2017,05,27,01,39,13.00
2017,05,27,01,40,13.00
2017,05,27,01,41,12.90
2017,05,27,01,42,12.90
2017,05,27,01,43,12.90
2017,05,27,01,44,12.90
2017,05,27,01,45,12.90
2017,05,27,01,46,12.80
2017,05,27,01,47,12.80
2017,05,27,01,48,12.80
2017,05,27,01,49,12.80
2017,05,27,01,50,12.80
2017,05,27,01,51,12.80
2017,05,27,01,52,12.80
2017,05,27,01,53,12.80
2017,05,27,01,54,12.70
2017,05,27,01,55,12.70
2017,05,27,01,56,12.70
2017,05,27,01,57,12.70
2017,05,27,01,58,12.70
2017,05,27,01,59,12.70
2017,05,27,02,00,12.70
2017,05,27,02,01,12.70
2017,05,27,02,02,12.70
2017,05,27,02,03,12.70
2017,05,27,02,04,12.70
2017,05,27,02,05,12.70
2017,05,27,02,06,12.70
2017,05,27,02,07,12.70
2017,05,27,02,08,12.70
2017,05,27,02,09,12.60
2017,05,27,02,10,12.70
2017,05,27,02,11,12.70
2017,05,27,02,12,12.60
2017,05,27,02,13,12.60
2017,05,27,02,14,12.60
2017,05,27,02,15,12.60
2017,05,27,02,16,12.60
2017,05,27,02,17,12.60
2017,05,27,02,18,12.60
2017,05,27,02,19,12.50
2017,05,27,02,20,12.50
2017,05,27,02,21,12.50
2017,05,27,02,22,12.50
2017,05,27,02,23,12.40
2017,05,27,02,24,12.40
2017,05,27,02,25,12.40
2017,05,27,02,26,12.40
2017,05,27,02,27,12.30
2017,05,27,02,28,12.30
2017,05,27,02,29,12.30
2017,05,27,02,30,12.30
2017,05,27,02,31,12.30
2017,05,27,02,32,12.30
2017,05,27,02,33,12.30
2017,05,27,02,34,12.30
2017,05,27,02,35,12.30
2017,05,27,02,36,12.20
2017,05,27,02,37,12.20
2017,05,27,02,38,12.20
2017,05,27,02,39,12.20
2017,05,27,02,40,12.20
2017,05,27,02,41,12.20
2017,05,27,02,42,12.20
2017,05,27,02,43,12.10
2017,05,27,02,44,12.10
2017,05,27,02,45,12.10
2017,05,27,02,46,12.10
2017,05,27,02,47,12.10
2017,05,27,02,48,12.10
2017,05,27,02,49,12.10
2017,05,27,02,50,12.10
2017,05,27,02,51,12.10
2017,05,27,02,52,12.10
2017,05,27,02,53,12.10
2017,05,27,02,54,12.20
2017,05,27,02,55,12.20
2017,05,27,02,56,12.20
2017,05,27,02,57,12.20
2017,05,27,02,58,12.20
2017,05,27,02,59,12.30
2017,05,27,03,00,12.30
2017,05,27,03,01,12.30
2017,05,27,03,02,12.30
2017,05,27,03,03,12.30
2017,05,27,03,04,12.30
2017,05,27,03,05,12.30
2017,05,27,03,06,12.30
2017,05,27,03,07,12.30
2017,05,27,03,08,12.30
2017,05,27,03,09,12.20
2017,05,27,03,10,12.20
2017,05,27,03,11,12.20
2017,05,27,03,12,12.20
2017,05,27,03,13,12.20
2017,05,27,03,14,12.20
2017,05,27,03,15,12.10
2017,05,27,03,16,12.10
2017,05,27,03,17,12.10
2017,05,27,03,18,12.10
2017,05,27,03,19,12.10
2017,05,27,03,20,12.10
2017,05,27,03,21,12.00
2017,05,27,03,22,12.00
2017,05,27,03,23,12.00
2017,05,27,03,24,12.00
2017,05,27,03,25,11.90
2017,05,27,03,26,11.90
2017,05,27,03,27,11.90
2017,05,27,03,28,11.90
2017,05,27,03,29,11.90
2017,05,27,03,30,11.90
2017,05,27,03,31,11.90
2017,05,27,03,32,11.90
2017,05,27,03,33,11.90
2017,05,27,03,34,11.90
2017,05,27,03,35,11.80
2017,05,27,03,36,11.80
2017,05,27,03,37,11.80
2017,05,27,03,38,11.80
2017,05,27,03,39,11.80
2017,05,27,03,40,11.80
2017,05,27,03,41,11.80
2017,05,27,03,42,11.80
2017,05,27,03,43,11.80
2017,05,27,03,44,11.80
2017,05,27,03,45,11.80
2017,05,27,03,46,11.80
2017,05,27,03,47,11.80
2017,05,27,03,48,11.80
2017,05,27,03,49,11.80
2017,05,27,03,50,11.80
2017,05,27,03,51,11.80
2017,05,27,03,52,11.70
2017,05,27,03,53,11.70
2017,05,27,03,54,11.70
2017,05,27,03,55,11.70
2017,05,27,03,56,11.70
2017,05,27,03,57,11.70
2017,05,27,03,58,11.70
2017,05,27,03,59,11.60
2017,05,27,04,00,11.60
2017,05,27,04,01,11.60
2017,05,27,04,02,11.50
2017,05,27,04,03,11.50
2017,05,27,04,04,11.50
2017,05,27,04,05,11.40
2017,05,27,04,06,11.40
2017,05,27,04,07,11.40
2017,05,27,04,08,11.30
2017,05,27,04,09,11.30
2017,05,27,04,10,11.30
2017,05,27,04,11,11.30
2017,05,27,04,12,11.30
2017,05,27,04,13,11.30
2017,05,27,04,14,11.30
2017,05,27,04,15,11.20
2017,05,27,04,16,11.20
2017,05,27,04,17,11.20
2017,05,27,04,18,11.20
2017,05,27,04,19,11.20
2017,05,27,04,20,11.20
2017,05,27,04,21,11.20
2017,05,27,04,22,11.20
2017,05,27,04,23,11.10
2017,05,27,04,24,11.10
2017,05,27,04,25,11.10
2017,05,27,04,26,11.10
2017,05,27,04,27,11.10
2017,05,27,04,28,11.10
2017,05,27,04,29,11.10
2017,05,27,04,30,11.10
2017,05,27,04,31,11.10
2017,05,27,04,32,11.00
2017,05,27,04,33,11.00
2017,05,27,04,34,11.00
2017,05,27,04,35,11.00
2017,05,27,04,36,10.90
2017,05,27,04,37,10.90
2017,05,27,04,38,10.90
2017,05,27,04,39,10.90
2017,05,27,04,40,10.90
2017,05,27,04,41,10.80
2017,05,27,04,42,10.80
2017,05,27,04,43,10.80
2017,05,27,04,44,10.80
2017,05,27,04,45,10.80
2017,05,27,04,46,10.70
2017,05,27,04,47,10.70
2017,05,27,04,48,10.70
2017,05,27,04,49,10.60
2017,05,27,04,50,10.60
2017,05,27,04,51,10.60
2017,05,27,04,52,10.50
2017,05,27,04,53,10.50
2017,05,27,04,54,10.40
2017,05,27,04,55,10.40
2017,05,27,04,56,10.40
2017,05,27,04,57,10.30
2017,05,27,04,58,10.30
2017,05,27,04,59,10.30
2017,05,27,05,00,10.30
2017,05,27,05,01,10.30
2017,05,27,05,02,10.30
2017,05,27,05,03,10.30
2017,05,27,05,04,10.30
2017,05,27,05,05,10.30
2017,05,27,05,06,10.30
2017,05,27,05,07,10.30
2017,05,27,05,08,10.30
2017,05,27,05,09,10.30
2017,05,27,05,10,10.30
2017,05,27,05,11,10.30
2017,05,27,05,12,10.30
2017,05,27,05,13,10.30
2017,05,27,05,14,10.30
2017,05,27,05,15,10.30
2017,05,27,05,16,10.30
2017,05,27,05,17,10.20
2017,05,27,05,18,10.20
2017,05,27,05,19,10.30
2017,05,27,05,20,10.20
2017,05,27,05,21,10.30
2017,05,27,05,22,10.30
2017,05,27,05,23,10.30
2017,05,27,05,24,10.20
2017,05,27,05,25,10.20
2017,05,27,05,26,10.20
2017,05,27,05,27,10.20
2017,05,27,05,28,10.10
2017,05,27,05,29,10.10
2017,05,27,05,30,10.10
2017,05,27,05,31,10.10
2017,05,27,05,32,10.10
2017,05,27,05,33,10.00
2017,05,27,05,34,10.00
2017,05,27,05,35,10.00
2017,05,27,05,36,10.00
2017,05,27,05,37,10.00
2017,05,27,05,38,10.00
2017,05,27,05,39,9.90
2017,05,27,05,40,9.90
2017,05,27,05,41,9.90
2017,05,27,05,42,9.90
2017,05,27,05,43,9.90
2017,05,27,05,44,9.90
2017,05,27,05,45,9.90
2017,05,27,05,46,10.00
2017,05,27,05,47,10.00
2017,05,27,05,48,10.00
2017,05,27,05,49,10.00
2017,05,27,05,50,10.00
2017,05,27,05,51,10.00
2017,05,27,05,52,10.00
2017,05,27,05,53,10.00
2017,05,27,05,54,10.10
2017,05,27,05,55,10.10
2017,05,27,05,56,10.10
2017,05,27,05,57,10.10
2017,05,27,05,58,10.10
2017,05,27,05,59,10.10
2017,05,27,06,00,10.10
2017,05,27,06,01,10.10
2017,05,27,06,02,10.20
2017,05,27,06,03,10.20
2017,05,27,06,04,10.20
2017,05,27,06,05,10.20
2017,05,27,06,06,10.20
2017,05,27,06,07,10.20
2017,05,27,06,08,10.20
2017,05,27,06,09,10.30
2017,05,27,06,10,10.30
2017,05,27,06,11,10.30
2017,05,27,06,12,10.30
2017,05,27,06,13,10.30
2017,05,27,06,14,10.30
2017,05,27,06,15,10.30
2017,05,27,06,16,10.30
2017,05,27,06,17,10.30
2017,05,27,06,18,10.30
2017,05,27,06,19,10.30
2017,05,27,06,20,10.30
2017,05,27,06,21,10.30
2017,05,27,06,22,10.30
2017,05,27,06,23,10.40
2017,05,27,06,24,10.40
2017,05,27,06,25,10.40
2017,05,27,06,26,10.40
2017,05,27,06,27,10.40
2017,05,27,06,28,10.40
2017,05,27,06,29,10.40
2017,05,27,06,30,10.50
2017,05,27,06,31,10.50
2017,05,27,06,32,10.50
2017,05,27,06,33,10.50
2017,05,27,06,34,10.60
2017,05,27,06,35,10.60
2017,05,27,06,36,10.70
2017,05,27,06,37,10.70
2017,05,27,06,38,10.70
2017,05,27,06,39,10.80
2017,05,27,06,40,10.80
2017,05,27,06,41,10.80
2017,05,27,06,42,10.90
2017,05,27,06,43,10.90
2017,05,27,06,44,11.00
2017,05,27,06,45,11.10
2017,05,27,06,46,11.20
2017,05,27,06,47,11.20
2017,05,27,06,48,11.30
2017,05,27,06,49,11.40
2017,05,27,06,50,11.40
2017,05,27,06,51,11.50
2017,05,27,06,52,11.60
2017,05,27,06,53,11.60
2017,05,27,06,54,11.70
2017,05,27,06,55,11.80
2017,05,27,06,56,11.80
2017,05,27,06,57,11.90
2017,05,27,06,58,12.00
2017,05,27,06,59,12.10
2017,05,27,07,00,12.20
2017,05,27,07,01,12.30
2017,05,27,07,02,12.30
2017,05,27,07,03,12.40
2017,05,27,07,04,12.50
2017,05,27,07,05,12.60
2017,05,27,07,06,12.70
2017,05,27,07,07,12.70
2017,05,27,07,08,12.80
2017,05,27,07,09,12.90
2017,05,27,07,10,13.00
2017,05,27,07,11,13.10
2017,05,27,07,12,13.20
2017,05,27,07,13,13.30
2017,05,27,07,14,13.50
2017,05,27,07,15,13.60
2017,05,27,07,16,13.70
2017,05,27,07,17,13.80
2017,05,27,07,18,13.90
2017,05,27,07,19,14.10
2017,05,27,07,20,14.20
2017,05,27,07,21,14.40
2017,05,27,07,22,14.50
2017,05,27,07,23,14.60
2017,05,27,07,24,14.70
2017,05,27,07,25,14.80
2017,05,27,07,26,14.90
2017,05,27,07,27,14.90
2017,05,27,07,28,15.00
2017,05,27,07,29,15.10
2017,05,27,07,30,15.10
2017,05,27,07,31,15.10
2017,05,27,07,32,15.20
2017,05,27,07,33,15.30
2017,05,27,07,34,15.30
2017,05,27,07,35,15.40
2017,05,27,07,36,15.50
2017,05,27,07,37,15.60
2017,05,27,07,38,15.70
2017,05,27,07,39,15.80
2017,05,27,07,40,15.80
2017,05,27,07,41,15.90
2017,05,27,07,42,15.90
2017,05,27,07,43,16.00
2017,05,27,07,44,16.10
2017,05,27,07,45,16.20
2017,05,27,07,46,16.20
2017,05,27,07,47,16.30
2017,05,27,07,48,16.50
2017,05,27,07,49,16.60
2017,05,27,07,50,16.70
2017,05,27,07,51,16.80
2017,05,27,07,52,16.90
2017,05,27,07,53,17.00
2017,05,27,07,54,17.10
2017,05,27,07,55,17.20
2017,05,27,07,56,17.30
2017,05,27,07,57,17.30
2017,05,27,07,58,17.40
2017,05,27,07,59,17.40
2017,05,27,08,00,17.50
2017,05,27,08,01,17.60
2017,05,27,08,02,17.70
2017,05,27,08,03,17.80
2017,05,27,08,04,17.90
2017,05,27,08,05,17.90
2017,05,27,08,06,18.00
2017,05,27,08,07,18.10
2017,05,27,08,08,18.20
2017,05,27,08,09,18.20
2017,05,27,08,10,18.30
2017,05,27,08,11,18.30
2017,05,27,08,12,18.30
2017,05,27,08,13,18.30
2017,05,27,08,14,18.30
2017,05,27,08,15,18.20
2017,05,27,08,16,18.20
2017,05,27,08,17,18.20
2017,05,27,08,18,18.20
2017,05,27,08,19,18.20
2017,05,27,08,20,18.10
2017,05,27,08,21,18.00
2017,05,27,08,22,17.90
2017,05,27,08,23,17.80
2017,05,27,08,24,17.70
2017,05,27,08,25,17.80
2017,05,27,08,26,17.90
2017,05,27,08,27,18.00
2017,05,27,08,28,18.00
2017,05,27,08,29,18.10
2017,05,27,08,30,18.10
2017,05,27,08,31,18.20
2017,05,27,08,32,18.30
2017,05,27,08,33,18.40
2017,05,27,08,34,18.50
2017,05,27,08,35,18.50
2017,05,27,08,36,18.60
2017,05,27,08,37,18.70
2017,05,27,08,38,18.70
2017,05,27,08,39,18.70
2017,05,27,08,40,18.70
2017,05,27,08,41,18.70
2017,05,27,08,42,18.70
2017,05,27,08,43,18.70
2017,05,27,08,44,18.70
2017,05,27,08,45,18.70
2017,05,27,08,46,18.80
2017,05,27,08,47,18.90
2017,05,27,08,48,19.00
2017,05,27,08,49,19.10
2017,05,27,08,50,19.20
2017,05,27,08,51,19.20
2017,05,27,08,52,19.30
2017,05,27,08,53,19.30
2017,05,27,08,54,19.40
2017,05,27,08,55,19.50
2017,05,27,08,56,19.70
2017,05,27,08,57,19.80
2017,05,27,08,58,19.90
2017,05,27,08,59,20.00
2017,05,27,09,00,20.10
2017,05,27,09,01,20.20
2017,05,27,09,02,20.30
2017,05,27,09,03,20.30
2017,05,27,09,04,20.40
2017,05,27,09,05,20.30
2017,05,27,09,06,20.10
2017,05,27,09,07,20.00
2017,05,27,09,08,19.90
2017,05,27,09,09,19.70
2017,05,27,09,10,19.50
2017,05,27,09,11,19.40
2017,05,27,09,12,19.40
2017,05,27,09,13,19.40
2017,05,27,09,14,19.40
2017,05,27,09,15,19.40
2017,05,27,09,16,19.40
2017,05,27,09,17,19.30
2017,05,27,09,18,19.30
2017,05,27,09,19,19.20
2017,05,27,09,20,19.20
2017,05,27,09,21,19.20
2017,05,27,09,22,19.30
2017,05,27,09,23,19.30
2017,05,27,09,24,19.20
2017,05,27,09,25,19.20
2017,05,27,09,26,19.20
2017,05,27,09,27,19.30
2017,05,27,09,28,19.30
2017,05,27,09,29,19.40
2017,05,27,09,30,19.40
2017,05,27,09,31,19.40
2017,05,27,09,32,19.50
2017,05,27,09,33,19.60
2017,05,27,09,34,19.60
2017,05,27,09,35,19.70
2017,05,27,09,36,19.70
2017,05,27,09,37,19.70
2017,05,27,09,38,19.70
2017,05,27,09,39,19.70
2017,05,27,09,40,19.70
2017,05,27,09,41,19.70
2017,05,27,09,42,19.80
2017,05,27,09,43,19.80
2017,05,27,09,44,19.80
2017,05,27,09,45,19.80
2017,05,27,09,46,19.90
2017,05,27,09,47,19.90
2017,05,27,09,48,20.00
2017,05,27,09,49,20.10
2017,05,27,09,50,20.10
2017,05,27,09,51,20.10
2017,05,27,09,52,20.20
2017,05,27,09,53,20.30
2017,05,27,09,54,20.40
2017,05,27,09,55,20.40
2017,05,27,09,56,20.50
2017,05,27,09,57,20.50
2017,05,27,09,58,20.60
2017,05,27,09,59,20.70
2017,05,27,10,00,20.80
2017,05,27,10,01,20.90
2017,05,27,10,02,21.10
2017,05,27,10,03,21.20
2017,05,27,10,04,21.40
2017,05,27,10,05,21.50
2017,05,27,10,06,21.60
2017,05,27,10,07,21.70
2017,05,27,10,08,21.70
2017,05,27,10,09,21.70
2017,05,27,10,10,21.60
2017,05,27,10,11,21.40
2017,05,27,10,12,21.20
2017,05,27,10,13,21.00
2017,05,27,10,14,21.00
2017,05,27,10,15,20.90
2017,05,27,10,16,20.90
2017,05,27,10,17,20.90
2017,05,27,10,18,20.80
2017,05,27,10,19,20.90
2017,05,27,10,20,20.90
2017,05,27,10,21,21.00
2017,05,27,10,22,21.00
2017,05,27,10,23,21.10
2017,05,27,10,24,21.20
2017,05,27,10,25,21.30
2017,05,27,10,26,21.40
2017,05,27,10,27,21.50
2017,05,27,10,28,21.50
2017,05,27,10,29,21.50
2017,05,27,10,30,21.50
2017,05,27,10,31,21.60
2017,05,27,10,32,21.70
2017,05,27,10,33,21.70
2017,05,27,10,34,21.80
2017,05,27,10,35,21.80
2017,05,27,10,36,21.80
2017,05,27,10,37,21.90
2017,05,27,10,38,21.90
2017,05,27,10,39,22.00
2017,05,27,10,40,22.10
2017,05,27,10,41,22.10
2017,05,27,10,42,22.10
2017,05,27,10,43,22.10
2017,05,27,10,44,22.00
2017,05,27,10,45,22.00
2017,05,27,10,46,21.90
2017,05,27,10,47,21.80
2017,05,27,10,48,21.80
2017,05,27,10,49,21.80
2017,05,27,10,50,21.80
2017,05,27,10,51,21.80
2017,05,27,10,52,21.80
2017,05,27,10,53,21.80
2017,05,27,10,54,21.80
2017,05,27,10,55,21.80
2017,05,27,10,56,21.80
2017,05,27,10,57,21.80
2017,05,27,10,58,21.90
2017,05,27,10,59,21.90
2017,05,27,11,00,22.00
2017,05,27,11,01,22.10
2017,05,27,11,02,22.20
2017,05,27,11,03,22.20
2017,05,27,11,04,22.20
2017,05,27,11,05,22.20
2017,05,27,11,06,22.20
2017,05,27,11,07,22.20
2017,05,27,11,08,22.20
2017,05,27,11,09,22.30
2017,05,27,11,10,22.30
2017,05,27,11,11,22.40
2017,05,27,11,12,22.40
2017,05,27,11,13,22.40
2017,05,27,11,14,22.30
2017,05,27,11,15,22.30
2017,05,27,11,16,22.20
2017,05,27,11,17,22.10
2017,05,27,11,18,22.10
2017,05,27,11,19,22.00
2017,05,27,11,20,22.00
2017,05,27,11,21,22.00
2017,05,27,11,22,22.00
2017,05,27,11,23,22.10
2017,05,27,11,24,22.20
2017,05,27,11,25,22.20
2017,05,27,11,26,22.30
2017,05,27,11,27,22.30
2017,05,27,11,28,22.30
2017,05,27,11,29,22.30
2017,05,27,11,30,22.50
2017,05,27,11,31,22.60
2017,05,27,11,32,22.70
2017,05,27,11,33,22.70
2017,05,27,11,34,22.60
2017,05,27,11,35,22.70
2017,05,27,11,36,22.70
2017,05,27,11,37,22.70
2017,05,27,11,38,22.70
2017,05,27,11,39,22.80
2017,05,27,11,40,22.90
2017,05,27,11,41,23.00
2017,05,27,11,42,23.10
2017,05,27,11,43,23.00
2017,05,27,11,44,22.90
2017,05,27,11,45,22.90
2017,05,27,11,46,22.80
2017,05,27,11,47,22.90
2017,05,27,11,48,23.00
2017,05,27,11,49,23.00
2017,05,27,11,50,23.10
2017,05,27,11,51,23.20
2017,05,27,11,52,23.10
2017,05,27,11,53,23.10
2017,05,27,11,54,23.10
2017,05,27,11,55,23.10
2017,05,27,11,56,23.10
2017,05,27,11,57,23.20
2017,05,27,11,58,23.20
2017,05,27,11,59,23.20
2017,05,27,12,00,23.30
2017,05,27,12,01,23.30
2017,05,27,12,02,23.30
2017,05,27,12,03,23.40
2017,05,27,12,04,23.40
2017,05,27,12,05,23.40
2017,05,27,12,06,23.50
2017,05,27,12,07,23.50
2017,05,27,12,08,23.50
2017,05,27,12,09,23.50
2017,05,27,12,10,23.50
2017,05,27,12,11,23.30
2017,05,27,12,12,23.20
2017,05,27,12,13,23.30
2017,05,27,12,14,23.30
2017,05,27,12,15,23.40
2017,05,27,12,16,23.50
2017,05,27,12,17,23.50
2017,05,27,12,18,23.40
2017,05,27,12,19,23.30
2017,05,27,12,20,23.20
2017,05,27,12,21,23.20
2017,05,27,12,22,23.10
2017,05,27,12,23,23.00
2017,05,27,12,24,23.00
2017,05,27,12,25,23.10
2017,05,27,12,26,23.10
2017,05,27,12,27,23.10
2017,05,27,12,28,23.20
2017,05,27,12,29,23.20
2017,05,27,12,30,23.30
2017,05,27,12,31,23.30
2017,05,27,12,32,23.40
2017,05,27,12,33,23.50
2017,05,27,12,34,23.40
2017,05,27,12,35,23.20
2017,05,27,12,36,23.20
2017,05,27,12,37,23.10
2017,05,27,12,38,23.00
2017,05,27,12,39,23.00
2017,05,27,12,40,22.90
2017,05,27,12,41,22.80
2017,05,27,12,42,22.80
2017,05,27,12,43,22.90
2017,05,27,12,44,23.00
2017,05,27,12,45,23.10
2017,05,27,12,46,23.10
2017,05,27,12,47,23.10
2017,05,27,12,48,23.10
2017,05,27,12,49,23.10
2017,05,27,12,50,23.10
2017,05,27,12,51,23.20
2017,05,27,12,52,23.30
2017,05,27,12,53,23.30
2017,05,27,12,54,23.30
2017,05,27,12,55,23.30
2017,05,27,12,56,23.30
2017,05,27,12,57,23.30
2017,05,27,12,58,23.30
2017,05,27,12,59,23.30
2017,05,27,13,00,23.20
2017,05,27,13,01,23.20
2017,05,27,13,02,23.20
2017,05,27,13,03,23.20
2017,05,27,13,04,23.30
2017,05,27,13,05,23.40
2017,05,27,13,06,23.30
2017,05,27,13,07,23.20
2017,05,27,13,08,23.30
2017,05,27,13,09,23.30
2017,05,27,13,10,23.40
2017,05,27,13,11,23.50
2017,05,27,13,12,23.50
2017,05,27,13,13,23.50
2017,05,27,13,14,23.50
2017,05,27,13,15,23.40
2017,05,27,13,16,23.50
2017,05,27,13,17,23.60
2017,05,27,13,18,23.60
2017,05,27,13,19,23.60
2017,05,27,13,20,23.60
2017,05,27,13,21,23.60
2017,05,27,13,22,23.60
2017,05,27,13,23,23.60
2017,05,27,13,24,23.60
2017,05,27,13,25,23.60
2017,05,27,13,26,23.70
2017,05,27,13,27,23.90
2017,05,27,13,28,23.90
2017,05,27,13,29,23.80
2017,05,27,13,30,23.90
2017,05,27,13,31,24.00
2017,05,27,13,32,24.00
2017,05,27,13,33,24.00
2017,05,27,13,34,24.00
2017,05,27,13,35,24.00
2017,05,27,13,36,24.10
2017,05,27,13,37,24.20
2017,05,27,13,38,24.30
2017,05,27,13,39,24.40
2017,05,27,13,40,24.40
2017,05,27,13,41,24.40
2017,05,27,13,42,24.40
2017,05,27,13,43,24.40
2017,05,27,13,44,24.50
2017,05,27,13,45,24.50
2017,05,27,13,46,24.40
2017,05,27,13,47,24.40
2017,05,27,13,48,24.40
2017,05,27,13,49,24.40
2017,05,27,13,50,24.40
2017,05,27,13,51,24.30
2017,05,27,13,52,24.30
2017,05,27,13,53,24.30
2017,05,27,13,54,24.30
2017,05,27,13,55,24.20
2017,05,27,13,56,24.20
2017,05,27,13,57,24.30
2017,05,27,13,58,24.30
2017,05,27,13,59,24.30
2017,05,27,14,00,24.40
2017,05,27,14,01,24.50
2017,05,27,14,02,24.40
2017,05,27,14,03,24.30
2017,05,27,14,04,24.30
2017,05,27,14,05,24.20
2017,05,27,14,06,24.20
2017,05,27,14,07,24.20
2017,05,27,14,08,24.30
2017,05,27,14,09,24.30
2017,05,27,14,10,24.30
2017,05,27,14,11,24.40
2017,05,27,14,12,24.40
2017,05,27,14,13,24.30
2017,05,27,14,14,24.20
2017,05,27,14,15,24.10
2017,05,27,14,16,24.10
2017,05,27,14,17,24.30
2017,05,27,14,18,24.30
2017,05,27,14,19,24.30
2017,05,27,14,20,24.30
2017,05,27,14,21,24.30
2017,05,27,14,22,24.30
2017,05,27,14,23,24.30
2017,05,27,14,24,24.40
2017,05,27,14,25,24.40
2017,05,27,14,26,24.40
2017,05,27,14,27,24.50
2017,05,27,14,28,24.50
2017,05,27,14,29,24.50
2017,05,27,14,30,24.50
2017,05,27,14,31,24.50
2017,05,27,14,32,24.60
2017,05,27,14,33,24.70
2017,05,27,14,34,24.70
2017,05,27,14,35,24.70
2017,05,27,14,36,24.70
2017,05,27,14,37,24.70
2017,05,27,14,38,24.70
2017,05,27,14,39,24.70
2017,05,27,14,40,24.60
2017,05,27,14,41,24.50
2017,05,27,14,42,24.50
2017,05,27,14,43,24.40
2017,05,27,14,44,24.50
2017,05,27,14,45,24.60
2017,05,27,14,46,24.60
2017,05,27,14,47,24.60
2017,05,27,14,48,24.70
2017,05,27,14,49,24.70
2017,05,27,14,50,24.80
2017,05,27,14,51,24.90
2017,05,27,14,52,25.10
2017,05,27,14,53,25.20
2017,05,27,14,54,25.30
2017,05,27,14,55,25.30
2017,05,27,14,56,25.30
2017,05,27,14,57,25.40
2017,05,27,14,58,25.50
2017,05,27,14,59,25.50
2017,05,27,15,00,25.30
2017,05,27,15,01,25.30
2017,05,27,15,02,25.20
2017,05,27,15,03,25.20
2017,05,27,15,04,25.30
2017,05,27,15,05,25.30
2017,05,27,15,06,25.30
2017,05,27,15,07,25.30
2017,05,27,15,08,25.30
2017,05,27,15,09,25.40
2017,05,27,15,10,25.60
2017,05,27,15,11,25.60
2017,05,27,15,12,25.60
2017,05,27,15,13,25.60
2017,05,27,15,14,25.50
2017,05,27,15,15,25.50
2017,05,27,15,16,25.30
2017,05,27,15,17,25.30
2017,05,27,15,18,25.20
2017,05,27,15,19,25.20
2017,05,27,15,20,25.30
2017,05,27,15,21,25.30
2017,05,27,15,22,25.40
2017,05,27,15,23,25.40
2017,05,27,15,24,25.40
2017,05,27,15,25,25.40
2017,05,27,15,26,25.50
2017,05,27,15,27,25.50
2017,05,27,15,28,25.60
2017,05,27,15,29,25.60
2017,05,27,15,30,25.60
2017,05,27,15,31,25.50
2017,05,27,15,32,25.50
2017,05,27,15,33,25.50
2017,05,27,15,34,25.50
2017,05,27,15,35,25.50
2017,05,27,15,36,25.50
2017,05,27,15,37,25.40
2017,05,27,15,38,25.40
2017,05,27,15,39,25.40
2017,05,27,15,40,25.50
2017,05,27,15,41,25.50
2017,05,27,15,42,25.50
2017,05,27,15,43,25.50
2017,05,27,15,44,25.60
2017,05,27,15,45,25.80
2017,05,27,15,46,25.80
2017,05,27,15,47,25.90
2017,05,27,15,48,25.90
2017,05,27,15,49,25.90
2017,05,27,15,50,25.90
2017,05,27,15,51,25.90
2017,05,27,15,52,25.90
2017,05,27,15,53,25.80
2017,05,27,15,54,25.80
2017,05,27,15,55,25.80
2017,05,27,15,56,25.90
2017,05,27,15,57,26.00
2017,05,27,15,58,26.10
2017,05,27,15,59,26.10
2017,05,27,16,00,26.10
2017,05,27,16,01,26.10
2017,05,27,16,02,26.10
2017,05,27,16,03,26.10
2017,05,27,16,04,26.20
2017,05,27,16,05,26.20
2017,05,27,16,06,26.30
2017,05,27,16,07,26.30
2017,05,27,16,08,26.30
2017,05,27,16,09,26.30
2017,05,27,16,10,26.30
2017,05,27,16,11,26.40
2017,05,27,16,12,26.50
2017,05,27,16,13,26.60
2017,05,27,16,14,26.70
2017,05,27,16,15,26.70
2017,05,27,16,16,26.70
2017,05,27,16,17,26.70
2017,05,27,16,18,26.60
2017,05,27,16,19,26.60
2017,05,27,16,20,26.60
2017,05,27,16,21,26.70
2017,05,27,16,22,26.70
2017,05,27,16,23,26.60
2017,05,27,16,24,26.60
2017,05,27,16,25,26.60
2017,05,27,16,26,26.60
2017,05,27,16,27,26.60
2017,05,27,16,28,26.60
2017,05,27,16,29,26.60
2017,05,27,16,30,26.70
2017,05,27,16,31,26.70
2017,05,27,16,32,26.70
2017,05,27,16,33,26.80
2017,05,27,16,34,26.80
2017,05,27,16,35,26.80
2017,05,27,16,36,26.70
2017,05,27,16,37,26.70
2017,05,27,16,38,26.60
2017,05,27,16,39,26.60
2017,05,27,16,40,26.70
2017,05,27,16,41,26.80
2017,05,27,16,42,26.90
2017,05,27,16,43,27.00
2017,05,27,16,44,27.00
2017,05,27,16,45,27.00
2017,05,27,16,46,27.00
2017,05,27,16,47,27.10
2017,05,27,16,48,27.10
2017,05,27,16,49,27.10
2017,05,27,16,50,27.00
2017,05,27,16,51,26.90
2017,05,27,16,52,26.80
2017,05,27,16,53,26.80
2017,05,27,16,54,26.70
2017,05,27,16,55,26.70
2017,05,27,16,56,26.70
2017,05,27,16,57,26.80
2017,05,27,16,58,26.90
2017,05,27,16,59,26.90
2017,05,27,17,00,27.00
2017,05,27,17,01,27.00
2017,05,27,17,02,27.00
2017,05,27,17,03,27.00
2017,05,27,17,04,27.00
2017,05,27,17,05,26.90
2017,05,27,17,06,26.90
2017,05,27,17,07,26.90
2017,05,27,17,08,26.80
2017,05,27,17,09,26.80
2017,05,27,17,10,26.80
2017,05,27,17,11,26.80
2017,05,27,17,12,26.80
2017,05,27,17,13,26.80
2017,05,27,17,14,26.80
2017,05,27,17,15,26.80
2017,05,27,17,16,26.90
2017,05,27,17,17,26.90
2017,05,27,17,18,27.00
2017,05,27,17,19,27.00